Regional Weather Roundup
Issued by NWS

Home | Current Version | Previous Version | Graphics & Text | Print | Product List | Glossary On
Versions: 1 2 3 4 5 6 7 8 9 10 11 12 13 14 15 16 17 18 19 20 21 22 23 24 25 26 27 28 29 30 31 32 33 34 35 36 37 38 39 40 41 42 43 44 45 46 47 48 49 50
000
ASUS45 KPSR 230310
RWRAZ

ARIZONA HOURLY REGIONAL WEATHER ROUNDUP
NATIONAL WEATHER SERVICE PHOENIX AZ
800 PM MST FRI JUL 22 2016

NOTE: FAIR INDICATES FEW OR NO CLOUDS BELOW 12,000 FEET WITH NO
SIGNIFICANT WEATHER AND/OR OBSTRUCTIONS TO VISIBILITY.

AZZ001>003-036-230400-
NORTHWEST ARIZONA

CITY           SKY/WX    TMP DP  RH WIND       PRES   REMARKS
BULLHEAD CITY  MOCLDY   111  37   8 S8        29.72R HX 104
KINGMAN        CLEAR     94  34  12 S8        30.01R
$$

AZZ004>008-015-016-018-230400-
NORTH CENTRAL ARIZONA

CITY           SKY/WX    TMP DP  RH WIND       PRES   REMARKS
GRAND CANYON   CLOUDY    74  47  38 NE7       30.36R THUNDER
WILLIAMS       CLOUDY    73  46  38 S12G21    30.41S
PRESCOTT       LGT RAIN  70  63  78 SE13      30.24R
FLAGSTAFF      CLOUDY    68  50  52 SW7       30.36F
PAYSON         CLOUDY    77  52  41 NW8       30.22S
PAGE           CLOUDY    93  43  17 S14       30.06R
$$

AZZ009>014-017-230400-
NORTHEAST ARIZONA

CITY           SKY/WX    TMP DP  RH WIND       PRES   REMARKS
WINSLOW        CLOUDY    79  52  38 CALM      30.19F
SAINT JOHNS    CLOUDY    76  48  37 W6        30.26S
WINDOW ROCK    CLOUDY    72  56  57 CALM      30.33S
SHOW LOW       CLOUDY    66  54  63 CALM      30.31F
$$

AZZ023-230400-
GREATER PHOENIX AREA

CITY           SKY/WX    TMP DP  RH WIND       PRES   REMARKS
PHOENIX        MOCLDY   105  53  17 N15       29.79S HX 103
BUCKEYE        MOCLDY   104  54  18 NE12G20   29.80R HX 102
GLENDALE       MOCLDY   102  55  21 N21G26    29.83R HX 101
LUKE AFB       CLOUDY   100  56  22 N22G28    29.81R
DEER VALLEY    MOCLDY   101  50  18 N18       29.84S
SCOTTSDALE     MOCLDY   103  48  15 N10G20    29.85F
MESA-GATEWAY   MOCLDY   100  55  22 N20G25    29.83R
CHANDLER       CLEAR    104  52  17 N30       29.81R HX 101
$$

AZZ027-028-230400-
SOUTHWEST MARICOPA COUNTY AND PINAL COUNTY

CITY           SKY/WX    TMP DP  RH WIND       PRES   REMARKS
CASA GRANDE    CLEAR    106  54  17 NW5       29.84S HX 104
GILA BEND      FAIR     109  46  12 SW6       29.76R HX 104
$$

AZZ503-504-507>509-230400-
SOUTHEAST ARIZONA

CITY           SKY/WX    TMP DP  RH WIND       PRES   REMARKS
TUCSON         CLOUDY   102  51  18 N13       29.93S
DAVIS-MONTHAN  CLEAR    100  52  19 NW12      29.93R
RYAN FIELD     CLEAR    102  52  18 NW6       29.92R HX 100
NOGALES        MOCLDY    85  59  41 E7        30.06R
SIERRA VISTA   PTCLDY    85  50  30 SW8       30.14S
DOUGLAS        MOCLDY    82  61  48 N7        30.06S
SAFFORD        MOCLDY    95  48  20 N6        29.96R
$$

AZZ020-021-025-026-031-230400-
SOUTHWEST ARIZONA

CITY           SKY/WX    TMP DP  RH WIND       PRES   REMARKS
YUMA           MOCLDY   103  59  23 S12       29.73R HX 103
$$

CAZ031-033-041-043-047-048-061-230400-
SOUTHERN CALIFORNIA

CITY           SKY/WX    TMP DP  RH WIND       PRES   REMARKS
DOWNTOWN L.A.  CLEAR     79  58  48 CALM      29.81S
L.A. AIRPORT   PTCLDY    76  61  59 S6        29.82S
SAN DIEGO      PTCLDY    77  65  66 NW8       29.84S
BURBANK        CLEAR     90  50  25 SE8       29.83S
ONTARIO        PTCLDY    92  43  18 W7        29.85R
RIVERSIDE      CLEAR     94  49  21 VRB6      29.84R
PALM SPRINGS   CLEAR    110  46  11 E7        29.74R HX 105
EL CENTRO NAS  PTCLDY   104  56  20 SE10      29.70R HX 103
IMPERIAL       CLEAR    107  59  20 SE10      29.68R HX 108
BLYTHE         CLEAR    107  56  18 S12       29.72R HX 106
NEEDLES        MOCLDY   113  37   7 SW7       29.75R HX 106
$$

NVZ020-UTZ003-230400-
SOUTHERN NEVADA-UTAH

CITY           SKY/WX    TMP DP  RH WIND       PRES   REMARKS
LAS VEGAS      PTCLDY   106  25   6 SW10      29.80R
SALT LAKE CITY PTCLDY    90  40  17 N5        30.00R
$$

NMZ009-TXZ055-230400-
NEW MEXICO-WEST TEXAS

CITY           SKY/WX    TMP DP  RH WIND       PRES   REMARKS
ALBUQUERQUE    PTCLDY    93  38  14 SW9       30.11S
EL PASO        PTCLDY    95  40  14 SE8       30.00R
$$


........................KEY........................
SKY/WX - SKY CONDITION/WEATHER
TMP    - TEMPERATURE IN FAHRENHEIT
DP     - DEW POINT IN FAHRENHEIT
RH     - RELATIVE HUMIDITY IN PERCENT
WIND   - DIRECTION AND SPEED IN MILES PER HOUR (MPH)
VRB    - VARIABLE WIND DIRECTION
PRES   - MEAN SEA LEVEL PRESSURE IN INCHES OF MERCURY
         F - FALLING PRESSURE   R - RISING PRESSURE
         S - STEADY PRESSURE
VSB    - VISIBILITY IN MILES
HX     - HEAT INDEX IN FAHRENHEIT
WCI    - WIND CHILL INDEX IN FAHRENHEIT
TC     - TEMPERATURE IN CELSIUS WHICH IS ALSO KNOWN AS
         TEMPERATURE IN CENTIGRADE
AFB    - AIR FORCE BASE
         LUKE AFB IS LUKE AIR FORCE BASE
         DAVIS-MONTHAN IS DAVIS-MONTHAN AIR FORCE BASE
NAS    - NAVAL AIR STATION
         EL CENTRO NAS IS EL CENTRO NAVAL AIR STATION
N/A    - NOT AVAILABLE




USA.gov is the U.S. government's official web portal to all federal, state and local government web resources and services.